Погода в Курортном

Россия / Республика Крым     44°59′46″N   34°21′44″E
темп.,
°C
ветер,
м/с
пор.,
м/с
влажн.,
%
обл.,
%
осадки,
мм/ч
давл.,
гПа
погр.,
м
3 марта, ср
ср300:00+1юз7128582 0.0 1024553
03:00+2зюз8139090 0.0 1023593
06:00+1ссз5895100 0.1 1023441
09:00+1ссз488499 0.1 1025815
12:00+3ссз467393 0.1 1026874
15:00+5ссз465863 0.1 10271302
18:00+4сз356311 0.0 1027686
21:00+2з237416 0.0 102962
4 марта, чт
чт400:00+1ююз237919 0.0 102854
03:00+1ююз337811 0.0 102849
06:00+1ююз33770 0.0 102654
09:00+3ююз35630 0.0 1026300
12:00+6зюз46530 0.0 1024828
15:00+7зюз57560 0.0 1022885
18:00+5юз47650 0.0 1020510
21:00+2ю35770 0.0 1020134
5 марта, пт
пт500:00+2ю46700 0.0 1019126
03:00+2ююз46600 0.0 1018126
06:00+3ю45570 0.0 101782
09:00+6ю47570 0.0 1016160
12:00+11ююз610510 0.0 1015809
15:00+12юз812415 0.0 10141070
18:00+10ююз6145159 0.0 1013543
21:00+7ююз4125976 0.0 1013314
6 марта, сб
сб600:00+6ююз5127576 0.0 1013290
03:00+6юз487660 0.0 1013182
06:00+5ю468367 0.0 101489
09:00+4ссв239378 0.0 1016159
12:00+4ссв5690100 0.0 1017375
15:000с5796100 0.5 1018376
18:00−1ссв3888100 2.8 1020738
21:000с4970100 2.9 1024723
7 марта, вс
вс700:00−2с397667 0.0 1026398
03:00−4ссв246833 0.0 1028157
06:00−4ю01610 0.0 102842
09:00−2юз12470 0.0 1028300
12:00+1з45440 0.0 10281351
15:00+2з56510 0.0 10261498
18:000зюз366217 0.0 1024472
21:00−1ююз35659 0.0 1023133